FW5669 Weather Reports


time (UTC)temp
C
wind
direction
speed
KPH
gust
KPH
rain 1hr
cm
rain 24hr
cm
rain mn
cm
humidity
%
barometer
mb
20260507084602 11 58 0.0 0.0 0.00 0.00 0.00 94 1020.5
20260507083102 11 58 0.0 0.0 0.00 0.00 0.00 94 1020.6
20260507081600 11 58 0.0 0.0 0.00 0.00 0.00 94 1020.6
20260507081501 11 58 0.0 0.0 0.00 0.00 0.00 94 1020.6
20260507080115 12 58 0.0 0.0 0.00 0.00 0.00 94 1020.6
20260507080002 12 58 0.0 0.0 0.00 0.00 0.00 94 1020.6
20260507074502 11 58 0.0 0.0 0.00 0.00 0.00 94 1020.5
20260507073001 11 58 0.0 0.0 0.00 0.00 0.00 93 1020.6
20260507071501 12 58 0.0 1.6 0.00 0.00 0.00 93 1020.5
20260507070010 12 58 0.0 1.6 0.00 0.00 0.00 92 1020.7
20260507064501 12 58 0.0 1.6 0.00 0.00 0.00 93 1020.6
20260507063000 12 62 0.0 1.6 0.00 0.00 0.00 92 1020.5
20260507061502 12 62 0.0 1.6 0.00 0.00 0.00 93 1020.6
20260507060002 13 62 0.0 1.6 0.00 0.00 0.00 92 1020.5
20260507054502 13 62 0.0 0.0 0.00 0.00 0.00 92 1020.5
20260507053003 13 62 0.0 1.6 0.00 0.00 0.00 91 1020.5
20260507051501 13 62 0.0 1.6 0.00 0.00 0.00 91 1020.5
20260507050002 13 62 0.0 1.6 0.00 0.00 0.00 90 1020.4
20260507044500 14 62 0.0 1.6 0.00 0.00 0.00 90 1020.4
20260507043003 14 62 0.0 0.0 0.00 0.00 0.00 89 1020.1
20260507041501 15 62 0.0 0.0 0.00 0.00 0.00 88 1019.8
20260507040003 15 66 0.0 0.0 0.00 0.00 0.00 88 1019.8
20260507034504 15 113 0.0 1.6 0.00 0.00 0.00 87 1019.7
20260507033003 16 159 0.0 1.6 0.00 0.00 0.00 85 1019.6
20260507031501 16 159 0.0 1.6 0.00 0.00 0.00 83 1019.5
20260507030003 17 159 0.0 1.6 0.00 0.00 0.00 80 1019.5
20260507024502 17 159 0.0 1.6 0.00 0.00 0.00 78 1019.4
20260507023001 18 159 0.0 0.0 0.00 0.00 0.00 75 1019.4
20260507021502 18 159 0.0 3.2 0.00 0.00 0.00 73 1019.3
20260507020006 18 175 0.0 3.2 0.00 0.00 0.00 73 1019.3
20260507014501 19 198 0.0 3.2 0.00 0.00 0.00 72 1019.4
20260507013000 19 161 1.6 3.2 0.00 0.00 0.00 71 1019.3
20260507011504 19 177 0.0 4.8 0.00 0.00 0.00 72 1019.5
20260507010004 19 191 0.0 3.2 0.00 0.00 0.00 71 1019.5
20260507004615 19 212 0.0 4.8 0.00 0.00 0.00 70 1019.5
20260507003102 19 338 1.6 4.8 0.00 0.00 0.00 69 1019.6
20260507001602 19 141 0.0 4.8 0.00 0.00 0.00 70 1019.5
20260507000002 19 316 1.6 6.4 0.00 0.00 0.00 70 1019.5
20260506234500 19 258 1.6 3.2 0.00 0.00 0.00 70 1019.6
20260506233101 19 204 0.0 4.8 0.00 0.00 0.00 71 1019.6
20260506231603 19 198 1.6 6.4 0.00 0.00 0.00 71 1019.8
20260506230107 18 249 1.6 4.8 0.00 0.00 0.00 71 1020.0
20260506230002 18 302 1.6 6.4 0.00 0.00 0.00 71 1020.0
20260506224601 19 182 1.6 6.4 0.00 0.00 0.00 71 1020.2
20260506223110 18 151 1.6 6.4 0.00 0.00 0.00 73 1020.5
20260506223000 18 127 1.6 6.4 0.00 0.00 0.00 73 1020.5
20260506221502 18 184 1.6 6.4 0.00 0.00 0.00 75 1020.8
20260506220002 17 236 0.0 4.8 0.00 0.00 0.00 77 1021.1
20260506214605 17 229 0.0 4.8 0.00 0.00 0.00 77 1021.3
20260506214501 17 229 1.6 4.8 0.00 0.00 0.00 77 1021.4
20260506213101 17 166 0.0 4.8 0.00 0.00 0.00 76 1021.4
20260506211501 16 224 0.0 4.8 0.00 0.00 0.00 77 1021.5
20260506210005 16 231 1.6 3.2 0.00 0.00 0.00 78 1021.7
20260506204601 16 218 0.0 3.2 0.00 0.00 0.00 79 1021.8
20260506203001 16 273 0.0 3.2 0.00 0.00 0.00 80 1021.8
20260506201600 16 243 0.0 3.2 0.00 0.00 0.00 80 1022.0
20260506201502 16 243 0.0 3.2 0.00 0.00 0.00 80 1021.9
20260506200107 16 283 0.0 3.2 0.00 0.00 0.00 81 1022.0
20260506194607 16 163 0.0 3.2 0.00 0.00 0.00 82 1022.2
20260506193101 16 177 0.0 0.0 0.00 0.00 0.00 81 1022.3
20260506191609 15 261 0.0 0.0 0.00 0.00 0.00 82 1022.6
20260506190059 15 224 0.0 0.0 0.00 0.00 0.00 84 1022.7
20260506190002 15 224 0.0 0.0 0.00 0.00 0.00 84 1022.7
20260506184601 15 211 0.0 0.0 0.00 0.00 0.00 83 1022.8
20260506183005 15 235 0.0 0.0 0.00 0.00 0.00 82 1022.7
20260506181502 15 127 0.0 0.0 0.00 0.00 0.00 82 1022.7
20260506180001 15 201 0.0 0.0 0.00 0.00 0.00 83 1022.7
20260506174600 15 28 0.0 0.0 0.00 0.00 0.00 84 1022.6
20260506173137 15 189 0.0 0.0 0.00 0.00 0.00 85 1022.6
20260506171559 15 208 0.0 0.0 0.00 0.00 0.00 84 1022.6
20260506170100 15 259 0.0 0.0 0.00 0.00 0.00 83 1022.6
20260506170002 15 259 0.0 0.0 0.00 0.00 0.00 84 1022.6
20260506164601 15 209 0.0 0.0 0.00 0.00 0.00 85 1022.7
20260506163005 14 235 0.0 0.0 0.00 0.00 0.00 86 1022.6
20260506161601 14 204 0.0 0.0 0.00 0.00 0.00 86 1022.5
20260506161502 14 204 0.0 0.0 0.00 0.00 0.00 86 1022.5
20260506160002 13 180 0.0 0.0 0.00 0.00 0.00 88 1022.4
20260506154559 13 160 0.0 0.0 0.00 0.00 0.00 91 1022.5
20260506153059 13 142 0.0 0.0 0.00 0.00 0.00 91 1022.4
20260506151600 13 122 0.0 0.0 0.00 0.00 0.00 92 1022.4
20260506150100 12 122 0.0 0.0 0.00 0.00 0.00 93 1022.5
20260506150002 12 122 0.0 0.0 0.00 0.00 0.00 93 1022.5
20260506144608 12 122 0.0 0.0 0.00 0.00 0.00 93 1022.5
20260506143100 12 122 0.0 0.0 0.00 0.00 0.00 93 1022.5
20260506141559 12 122 0.0 0.0 0.00 0.00 0.00 93 1022.2
20260506140100 12 122 0.0 0.0 0.00 0.00 0.00 93 1022.0
20260506140002 12 122 0.0 0.0 0.00 0.00 0.00 93 1022.0
20260506134604 12 122 0.0 0.0 0.00 0.00 0.00 93 1022.0
20260506133101 12 143 0.0 0.0 0.00 0.00 0.00 93 1021.9
20260506131600 12 143 0.0 0.0 0.00 0.00 0.00 93 1021.7
20260506130100 12 143 0.0 0.0 0.00 0.00 0.00 94 1021.6
20260506124559 12 143 0.0 0.0 0.00 0.00 0.00 94 1021.6
20260506123100 12 143 0.0 0.0 0.00 0.00 0.00 93 1021.4
20260506121601 12 143 0.0 0.0 0.00 0.00 0.00 94 1021.5
20260506120111 12 143 0.0 0.0 0.00 0.00 0.00 94 1021.3
20260506120001 12 143 0.0 0.0 0.00 0.00 0.00 94 1021.3
20260506114603 12 143 0.0 0.0 0.00 0.00 0.00 93 1021.3
20260506113101 12 143 0.0 0.0 0.00 0.00 0.00 93 1021.3
20260506111601 12 143 0.0 0.0 0.00 0.00 0.00 93 1021.3
20260506110059 12 143 0.0 0.0 0.00 0.00 0.00 93 1021.1
20260506110001 12 143 0.0 0.0 0.00 0.00 0.00 93 1021.1
20260506104601 12 143 0.0 0.0 0.00 0.00 0.00 93 1021.0
20260506103059 12 143 0.0 0.0 0.00 0.00 0.00 93 1021.1
20260506101601 12 143 0.0 0.0 0.00 0.00 0.00 93 1020.9
20260506100106 12 143 0.0 0.0 0.00 0.00 0.00 93 1020.8
20260506100002 12 143 0.0 0.0 0.00 0.00 0.00 93 1020.8
20260506094613 12 143 0.0 0.0 0.00 0.00 0.00 93 1020.8
20260506093059 12 143 0.0 0.0 0.00 0.00 0.00 93 1020.8
20260506091602 12 143 0.0 0.0 0.00 0.00 0.00 93 1020.8